Lid_Strength_Index
4 4 5 6 7 7 7 8 9 8 10 10 10 10 8 5 5 5 4 -0 -1 -1 -1 -1 -1 -1 0 -0 -1 -0 1 0 -0 0 -0 -1 -1 -1 -1 -1 -1 -1 -1
5 5 6 6 7 8 8 9 9 9 10 10 10 9 10 6 6 6 6 5 1 1 1 2 1 1 0 -0 0 0 0 1 1 1 1 0 1 -1 -1 -1 -1 -1 -1
4 5 6 7 7 8 8 9 10 10 10 9 10 10 9 10 7 7 6 6 4 2 3 3 3 2 2 2 2 2 1 1 0 0 1 2 1 -0 0 -1 -1 -1 -1
6 7 6 7 7 8 9 9 10 10 10 10 11 10 10 10 10 8 7 6 6 5 3 3 4 4 4 4 3 2 2 1 1 1 1 1 1 1 -0 -0 -0 -1 -1
6 7 7 6 7 8 9 9 10 10 10 10 10 10 10 10 10 9 8 7 7 6 6 3 3 4 4 4 4 4 3 2 2 1 1 1 1 0 1 1 -0 -1 -0
7 7 8 7 7 8 9 9 10 10 10 10 8 9 11 11 10 10 10 8 8 7 7 8 8 7 3 3 4 4 4 3 3 3 2 1 1 1 0 0 0 1 -1
7 8 9 9 9 7 8 9 9 10 10 10 11 11 11 11 11 11 10 10 9 8 8 8 8 9 8 3 4 4 4 3 4 4 3 2 2 1 1 0 0 -0 -1
8 8 8 8 8 9 9 9 9 10 10 10 11 13 13 11 11 11 11 10 10 9 8 8 9 9 9 9 8 4 4 4 4 4 3 3 2 2 1 1 0 0 -0
7 7 8 8 8 8 8 8 9 9 10 10 11 12 14 13 13 12 12 11 11 10 9 9 9 9 9 10 7 5 3 4 4 3 3 3 3 2 2 1 1 1 0
8 6 6 6 7 8 9 8 8 9 10 10 11 10 12 12 13 13 12 12 12 11 11 10 10 10 10 10 8 6 4 3 4 4 3 3 2 3 2 2 2 1 1
5 6 6 7 7 6 7 8 9 9 9 10 11 12 13 13 14 14 14 13 12 11 11 11 11 11 11 10 10 8 3 3 3 4 4 3 3 3 2 2 2 2 1
4 4 5 5 5 6 6 8 8 8 8 10 10 11 12 12 13 13 14 14 13 12 12 11 11 11 10 10 8 5 4 3 3 3 3 3 3 3 3 2 2 2 2
5 5 5 5 5 5 6 7 8 8 8 8 9 10 11 11 11 12 13 14 14 13 12 11 11 11 10 10 9 5 4 4 4 4 4 4 3 3 3 3 3 2 2
5 5 4 4 4 5 5 5 7 7 7 7 9 10 10 10 11 11 12 13 14 14 13 12 12 11 11 10 9 4 7 4 4 4 4 4 4 4 4 3 3 3 3
4 4 5 4 4 4 5 5 6 8 7 7 8 9 9 10 10 11 11 11 12 15 15 13 13 12 11 10 8 8 8 6 4 4 4 4 4 4 4 4 4 4 3
5 5 5 4 4 4 4 5 6 7 7 7 7 9 10 10 10 11 11 11 12 13 14 13 12 11 11 9 8 7 8 5 5 5 5 4 5 4 4 4 4 4 4
3 3 3 4 4 4 5 5 6 6 8 7 7 9 10 10 10 11 11 11 12 12 13 13 12 11 11 11 10 10 9 10 10 6 5 5 4 5 5 4 4 3 3
2 2 2 3 3 3 4 5 5 6 7 8 8 8 9 9 10 11 11 11 12 12 12 13 12 12 11 11 11 11 10 9 10 7 6 5 5 4 3 3 2 2 2
3 2 2 1 2 2 4 4 5 6 7 7 8 8 9 9 10 11 11 12 12 10 12 12 13 12 12 11 11 11 11 11 9 7 6 5 5 4 3 2 2 2 2
2 2 2 1 1 1 2 3 4 5 6 7 7 8 9 9 9 11 11 11 11 12 12 12 12 12 12 12 12 12 12 12 11 9 8 6 5 4 3 3 1 1 1
2 1 2 2 1 1 1 2 3 5 6 7 8 8 9 8 6 8 10 11 11 12 12 12 13 13 13 13 13 12 13 12 11 10 9 8 8 7 5 3 2 1 0
1 1 2 2 2 1 0 0 2 4 6 7 9 9 8 5 5 4 5 6 9 11 12 12 12 13 13 12 12 13 12 12 12 8 8 8 6 6 5 4 2 2 1
2 3 2 2 2 2 1 1 1 5 7 7 8 9 9 7 6 8 4 5 5 5 6 11 12 13 13 12 12 12 12 11 10 8 7 8 5 5 4 3 2 2 1
3 3 3 3 3 3 2 1 1 5 7 8 8 9 9 10 8 9 10 10 11 10 10 9 11 11 11 11 12 10 9 8 6 6 6 8 6 6 5 4 2 1 1
3 3 4 3 4 5 3 2 2 6 8 9 9 10 10 10 6 6 11 11 12 11 8 7 6 6 6 7 7 8 8 9 9 8 7 8 7 7 5 4 3 1 2
3 3 4 4 5 6 3 2 3 7 9 10 10 10 7 9 5 5 11 12 12 12 11 11 10 10 9 10 6 7 8 9 9 9 7 8 7 6 7 3 2 3 2